Weather History for KT65 - November, 2011

Change the Weather History Date:

Tuesday, November 29, 2011

  Actual Average (KMFE) Record (KMFE)
Temperature  
Mean Temperature 64 °F 65 °F  
Max Temperature 86 °F 76 °F 93 °F (2010)
Min Temperature 42 °F 55 °F 30 °F (1896)
Degree Days  
Heating Degree Days 1 4  
Month to date heating degree days 53  
Since 1 July heating degree days 58  
Cooling Degree Days 0 4  
Month to date cooling degree days 183  
Year to date cooling degree days 4365  
Growing Degree Days 14 (Base 50)    
Moisture  
Dew Point 33 °F    
Average Humidity 43    
Maximum Humidity 88    
Minimum Humidity 9    
Precipitation  
Precipitation 0.00 in 0.02 in 0.47 in (1976)
Month to date precipitation 0.86  
Year to date precipitation 20.98  
Sea Level Pressure  
Sea Level Pressure 30.09 in    
Wind  
Wind Speed 6 mph (South)    
Max Wind Speed 12 mph    
Max Gust Speed 16 mph    
Visibility 9 miles    
Events      
T = Trace of Precipitation, MM = Missing Value Source: NWS Daily Summary

Daily Weather History Graph

Daily Weather History Graph

Search for Another Location

Airport or City:

Trip Planner

Search our weather history database for the weather conditions in past years. The results will help you decide how hot, cold, wet, or windy it might be!

Date:

Astronomy

Nov. 29, 2011 Rise Set
Actual Time 7:00 AM CST 5:39 PM CST
Civil Twilight 6:35 AM CST 6:04 PM CST
Nautical Twilight 6:07 AM CST 6:32 PM CST
Astronomical Twilight 5:39 AM CST 7:00 PM CST
Moon 10:57 AM CST (11/29) 10:22 PM CST (11/29)
Length of Visible Light 11h 28m
Length of Day
10h 38m
Waxing Crescent, 24% of the Moon is Illuminated
Nov 29
Waxing Crescent
Dec 2
First Quarter
Dec 10
Full
Dec 17
Last Quarter
Dec 24
New

Hourly Weather History & Observations

Time (CST) Temp. Windchill Dew Point Humidity Pressure Visibility Wind Dir Wind Speed Gust Speed Precip Events Conditions
12:15 AM 53.6 °F - 28.4 °F 38% 30.08 in 10.0 mi SSW 10.4 mph 16.1 mph N/A   Clear
12:35 AM 55.4 °F - 30.2 °F 38% 30.08 in 10.0 mi SSW 11.5 mph - N/A   Clear
12:55 AM 53.6 °F - 30.2 °F 41% 30.07 in 10.0 mi SSW 10.4 mph - N/A   Clear
1:15 AM 53.6 °F - 30.2 °F 41% 30.07 in 10.0 mi SSW 8.1 mph - N/A   Clear
1:35 AM 53.6 °F - 30.2 °F 41% 30.07 in 10.0 mi SSW 8.1 mph - N/A   Clear
1:55 AM 53.6 °F - 30.2 °F 41% 30.07 in 10.0 mi SSW 8.1 mph - N/A   Clear
2:15 AM 53.6 °F - 32.0 °F 44% 30.07 in 10.0 mi SSW 8.1 mph - N/A   Clear
2:35 AM 53.6 °F - 32.0 °F 44% 30.06 in 10.0 mi SSW 8.1 mph - N/A   Clear
2:55 AM 50.0 °F - 32.0 °F 50% 30.06 in 10.0 mi SSW 5.8 mph - N/A   Clear
3:15 AM 50.0 °F - 32.0 °F 50% 30.06 in 10.0 mi SSW 5.8 mph - N/A   Clear
3:35 AM 50.0 °F - 32.0 °F 50% 30.06 in 10.0 mi SSW 4.6 mph - N/A   Clear
3:55 AM 50.0 °F - 32.0 °F 50% 30.06 in 10.0 mi SSW 4.6 mph - N/A   Clear
4:15 AM 48.2 °F - 32.0 °F 54% 30.06 in 10.0 mi South 4.6 mph - N/A   Clear
4:35 AM 46.4 °F 43.5 °F 32.0 °F 57% 30.06 in 10.0 mi SSW 5.8 mph - N/A   Clear
4:55 AM 46.4 °F 44.3 °F 32.0 °F 57% 30.06 in 10.0 mi SSW 4.6 mph - N/A   Clear
5:15 AM 46.4 °F 44.3 °F 32.0 °F 57% 30.06 in 10.0 mi SSW 4.6 mph - N/A   Clear
5:35 AM 46.4 °F - 32.0 °F 57% 30.06 in 10.0 mi Calm Calm - N/A   Clear
6:15 AM 44.6 °F 43.1 °F 32.0 °F 61% 30.07 in 10.0 mi SSE 3.5 mph - N/A   Clear
6:35 AM 44.6 °F 41.4 °F 32.0 °F 61% 30.08 in 5.0 mi South 5.8 mph - N/A   Haze
6:55 AM 44.6 °F 42.2 °F 32.0 °F 61% 30.08 in 3.0 mi South 4.6 mph - N/A   Haze
7:15 AM 42.8 °F - 32.0 °F 66% 30.09 in 2.5 mi Calm Calm - N/A   Haze
7:35 AM 44.6 °F 42.2 °F 33.8 °F 66% 30.09 in 3.0 mi South 4.6 mph - N/A   Haze
7:55 AM 50.0 °F - 32.0 °F 50% 30.11 in 4.0 mi Calm Calm - N/A   Haze
8:15 AM 51.8 °F - 32.0 °F 47% 30.11 in 5.0 mi Calm Calm - N/A   Haze
8:35 AM 55.4 °F - 30.2 °F 38% 30.11 in 7.0 mi Calm Calm - N/A   Clear
8:55 AM 57.2 °F - 30.2 °F 36% 30.13 in 7.0 mi Calm Calm - N/A   Clear
9:15 AM 60.8 °F - 30.2 °F 31% 30.13 in 7.0 mi SW 5.8 mph - N/A   Clear
9:35 AM 62.6 °F - 30.2 °F 30% 30.13 in 10.0 mi WSW 4.6 mph - N/A   Clear
10:15 AM 69.8 °F - 28.4 °F 21% 30.13 in 10.0 mi WNW 5.8 mph - N/A   Clear
10:35 AM 71.6 °F - 26.6 °F 19% 30.13 in 10.0 mi WSW 3.5 mph - N/A   Clear
10:55 AM 71.6 °F - 30.2 °F 22% 30.13 in 10.0 mi WSW 3.5 mph - N/A   Clear
11:15 AM 73.4 °F - 30.2 °F 20% 30.12 in 10.0 mi Calm Calm - N/A   Clear
11:35 AM 77.0 °F - 30.2 °F 18% 30.11 in 10.0 mi Calm Calm - N/A   Clear
12:55 PM 82.4 °F - 24.8 °F 12% 30.08 in 10.0 mi West 3.5 mph - N/A   Clear
1:35 PM 82.4 °F - 21.2 °F 10% 30.06 in 10.0 mi Calm Calm - N/A   Clear
1:55 PM 86.0 °F - 19.4 °F 9% 30.05 in 10.0 mi Calm Calm - N/A   Clear
2:15 PM 84.2 °F - 21.2 °F 10% 30.05 in 10.0 mi Calm Calm - N/A   Clear
2:35 PM 84.2 °F - 19.4 °F 9% 30.04 in 10.0 mi Calm Calm - N/A   Clear
2:55 PM 86.0 °F - 19.4 °F 9% 30.05 in 10.0 mi East 4.6 mph - N/A   Clear
3:15 PM 84.2 °F - 19.4 °F 9% 30.04 in 10.0 mi North 3.5 mph - N/A   Clear
3:55 PM 82.4 °F - 17.6 °F 9% 30.04 in 10.0 mi NNE 3.5 mph - N/A   Clear
4:15 PM 82.4 °F - 17.6 °F 9% 30.04 in 10.0 mi East 3.5 mph - N/A   Clear
4:35 PM 78.8 °F - 35.6 °F 21% 30.05 in 10.0 mi East 10.4 mph - N/A   Clear
5:15 PM 73.4 °F - 35.6 °F 25% 30.06 in 10.0 mi ENE 8.1 mph - N/A   Clear
5:35 PM 71.6 °F - 35.6 °F 27% 30.07 in 10.0 mi East 6.9 mph - N/A   Clear
6:15 PM 68.0 °F - 37.4 °F 33% 30.09 in 10.0 mi ENE 9.2 mph - N/A   Clear
6:35 PM 66.2 °F - 41.0 °F 40% 30.09 in 10.0 mi ENE 9.2 mph - N/A   Clear
6:55 PM 66.2 °F - 44.6 °F 46% 30.10 in 10.0 mi NE 9.2 mph - N/A   Clear
7:35 PM 64.4 °F - 48.2 °F 56% 30.13 in 10.0 mi NE 6.9 mph - N/A   Clear
7:55 PM 62.6 °F - 50.0 °F 63% 30.14 in 10.0 mi ENE 4.6 mph - N/A   Clear
8:15 PM 60.8 °F - 48.2 °F 63% 30.15 in 10.0 mi NE 4.6 mph - N/A   Clear
8:35 PM 60.8 °F - 48.2 °F 63% 30.16 in 10.0 mi NE 3.5 mph - N/A   Clear
8:55 PM 59.0 °F - 48.2 °F 67% 30.16 in 10.0 mi NE 3.5 mph - N/A   Clear
9:15 PM 59.0 °F - 50.0 °F 72% 30.17 in 10.0 mi Calm Calm - N/A   Clear
9:55 PM 57.2 °F - 48.2 °F 72% 30.18 in 10.0 mi Calm Calm - N/A   Clear
10:15 PM 55.4 °F - 48.2 °F 77% 30.18 in 10.0 mi North 3.5 mph - N/A   Clear
10:55 PM 53.6 °F - 48.2 °F 82% 30.19 in 10.0 mi North 3.5 mph - N/A   Clear
11:15 PM 53.6 °F - 46.4 °F 77% 30.18 in 10.0 mi North 3.5 mph - N/A   Clear
11:35 PM 53.6 °F - 50.0 °F 88% 30.18 in 10.0 mi North 4.6 mph - N/A   Clear
11:55 PM 53.6 °F - 50.0 °F 88% 30.18 in 10.0 mi North 3.5 mph - N/A   Clear